SCP
0 0 0 0 0 0 0 0 0 0 0 0 0 0 0 0 0 0 0 0 0 0 0 0 0 0 0 0 0 0 0 0 0 0 0 0 0 0 0 0 0 0 0 0 0
0 0 0 0 0 0 0 0 0 0 0 0 0 0 0 0 0 0 0 0 0 0 0 0 0 0 0 0 0 0 0 0 0 0 0 0 0 0 0 0 0 0 0 0 0
0 0 0 0 0 0 0 0 0 0 0 0 0 0 0 0 0 0 0 0 0 0 0 0 0 0 0 0 0 0 0 0 0 0 0 0 0 0 0 0 0 0 0 0 0
0 0 0 0 0 0 0 0 0 0 0 0 0 0 0 0 0 0 0 0 0 0 0 0 0 0 0 0 0 0 0 0 0 0 0 0 0 0 0 0 0 0 0 0 0
0 0 0 0 0 0 0 0 0 0 0 0 0 0 0 0 0 0 0 0 0 0 0 0 0 0 0 0 0 0 0 0 0 0 0 0 0 0 0 0 0 0 0 0 0
0 0 0 0 0 0 0 0 0 0 0 0 0 0 0 0 0 0 0 0 0 0 0 0 0 0 0 0 0 0 0 0 0 0 0 0 0 0 0 0 0 0 0 0 0
0 0 0 0 0 0 0 0 0 0 0 0 0 0 0 0 0 0 0 0 0 0 0 0 0 0 0 0 0 0 0 0 0 0 0 0 0 0 0 0 0 0 0 0 0
0 0 0 0 0 0 0 0 0 0 0 0 0 0 0 0 0 0 0 0 0 0 0 0 0 0 0 0 0 0 0 0 0 0 0 0 -0 0 0 0 0 0 0 0 0
0 0 0 0 0 0 0 0 0 0 0 0 0 0 0 0 0 0 0 0 0 0 0 0 0 0 0 0 0 0 0 0 0 0 0 0 0 0 0 0 0 0 0 0 0
0 0 0 0 0 0 0 0 0 0 0 0 0 0 0 0 0 0 0 0 0 0 0 0 0 0 0 0 0 0 0 0 0 0 0 0 0 0 0 0 0 0 0 0 0
0 0 0 0 0 0 0 0 0 0 0 0 0 0 0 0 0 0 0 0 0 0 0 0 0 0 0 0 0 0 0 0 0 0 0 0 0 0 0 0 0 0 0 0 0
0 0 0 0 0 0 0 0 0 0 0 0 0 0 0 0 0 0 0 0 0 0 0 0 0 0 0 0 0 0 0 0 0 0 0 0 0 0 0 0 0 0 0 0 0
0 0 0 0 0 0 0 0 0 0 0 0 0 0 0 0 0 0 0 0 0 0 0 0 0 0 0 0 0 0 0 0 0 0 0 0 0 0 0 0 0 0 0 0 0
0 0 0 0 0 0 0 0 0 0 0 0 0 0 0 0 0 0 0 0 0 0 0 0 0 0 0 0 0 0 0 0 0 0 0 0 -0 0 0 0 0 0 0 0 0
0 0 0 0 0 0 0 0 0 0 0 0 0 0 0 0 0 0 0 0 0 0 0 0 0 0 0 0 0 0 0 0 0 0 0 0 0 -0 -0 0 0 0 0 0 0
0 0 0 0 0 0 0 0 0 0 0 0 0 0 0 0 0 0 0 0 0 0 0 0 0 0 0 0 0 0 0 0 0 0 0 0 0 -0 0 0 0 0 0 0 0
0 0 0 0 0 0 0 0 0 0 0 0 0 0 0 0 0 0 0 0 0 0 0 0 0 0 0 0 0 0 0 0 0 0 0 0 0 0 0 0 0 0 0 0 0
0 0 0 0 0 0 0 0 0 0 0 0 0 0 0 0 0 0 0 0 0 0 0 0 0 0 0 0 0 0 0 0 0 0 0 0 0 0 -0 -0 -0 0 0 0 0
0 0 0 0 0 0 0 0 0 0 0 0 0 0 0 0 0 0 0 0 0 0 0 0 0 0 0 0 0 0 0 0 0 0 0 0 0 0 0 0 0 0 0 0 0
0 0 0 0 0 0 0 0 0 0 0 0 -0 -0 0 0 0 0 0 0 0 0 0 0 0 0 0 0 0 0 0 0 0 0 0 0 0 0 -0 -0 0 0 0 0 0
0 0 0 0 0 0 0 0 0 0 0 0 -0 -0 -0 0 0 0 0 0 0 0 0 0 0 0 0 0 0 0 0 0 0 0 0 0 0 0 -0 0 0 0 0 0 0
0 0 0 0 0 0 0 0 0 0 0 0 0 -0 -0 -0 0 0 0 0 0 0 0 0 0 0 0 0 0 0 0 0 0 0 0 0 0 0 -0 0 0 0 0 0 0
0 0 0 0 0 0 0 0 0 0 0 0 0 -0 -0 -0 -0 0 0 0 0 0 0 0 0 0 0 0 0 0 0 0 0 0 0 0 0 0 0 0 0 0 0 0 0
0 0 0 0 0 0 0 0 0 0 0 0 0 -0 -0 -0 -0 -0 -0 0 0 0 0 0 0 0 0 0 0 0 0 0 0 0 0 0 0 0 0 0 -0 0 0 -0 0
0 0 0 0 0 0 0 0 0 0 0 0 0 -0 -0 -0 -0 -0 -0 0 0 0 0 0 0 0 0 0 0 0 0 0 0 0 0 0 0 0 0 0 -0 -0 -0 -0 -0
0 0 0 0 0 0 0 0 0 0 0 0 0 0 -0 -0 -0 -0 -0 -0 0 0 0 0 0 0 0 0 0 0 0 0 0 0 0 0 0 0 0 0 -0 -0 -0 0 0
0 0 0 0 0 0 0 0 0 0 0 0 0 0 0 0 0 -0 -0 -0 -0 0 0 0 0 0 0 0 0 0 0 0 0 0 0 0 0 0 0 0 0 0 0 0 0
Wind_Speed_500mb
32 29 27 30 31 30 29 31 32 32 32 32 32 34 36 38 34 35 27 25 23 27 27 21 22 18 19 15 16 11 3 8 10 13 10 11 4 4 6 11 19 24 17 12 21
32 32 35 30 30 31 29 30 31 31 33 34 34 34 36 38 42 40 29 29 27 31 32 24 19 21 11 12 16 12 8 16 13 11 9 5 4 14 5 7 15 23 28 22 26
33 32 32 39 33 31 29 32 34 34 32 34 36 35 36 37 37 5 2 5 9 12 19 22 17 18 12 12 16 13 18 12 12 28 14 7 20 11 8 9 29 37 41 33 40
39 40 40 37 37 40 38 37 36 35 34 34 36 38 36 31 10 4 8 8 8 7 13 13 19 11 10 12 18 7 23 22 17 38 20 10 13 9 23 40 29 45 31 40 50
45 45 38 38 41 39 42 42 39 35 36 35 36 38 39 23 27 20 21 20 14 13 13 13 20 13 10 10 12 7 12 15 39 37 37 33 27 26 31 46 42 28 31 43 53
45 48 46 42 36 35 38 42 41 37 37 36 37 37 30 16 14 15 28 30 28 19 14 13 9 11 11 10 13 9 11 26 31 39 19 9 21 13 34 40 37 40 41 43 52
45 40 43 44 43 39 41 41 41 39 36 36 37 38 37 53 29 33 27 27 25 20 19 15 15 15 2 8 11 16 12 12 8 14 12 23 23 22 52 44 34 38 45 47 53
51 45 42 42 46 45 45 44 46 43 39 35 34 33 30 55 52 53 41 51 41 30 22 17 14 15 13 12 11 5 4 7 7 15 17 25 37 23 54 51 60 55 51 55 59
56 59 52 45 48 45 41 42 42 40 43 34 28 25 33 39 23 10 17 40 41 33 27 18 7 13 7 6 9 8 7 12 13 23 10 18 15 11 45 41 52 60 64 64 62
56 59 65 56 60 51 42 40 42 45 38 36 30 14 40 36 18 10 9 11 18 18 12 17 15 5 3 7 16 18 13 9 11 3 10 11 24 17 13 32 58 63 58 65 69
52 51 48 59 58 57 45 42 35 18 36 32 22 38 7 10 10 5 3 6 15 14 11 10 7 19 24 34 5 7 7 9 4 9 8 15 23 31 30 33 38 49 55 66 73
51 52 46 49 47 45 46 49 33 7 20 46 71 55 56 29 12 20 13 9 14 11 7 2 30 17 14 12 13 12 13 15 9 11 11 15 23 26 18 19 50 62 68 66 70
51 52 47 46 49 49 43 58 54 47 17 33 63 79 67 71 69 75 31 14 10 13 17 17 8 19 22 11 22 22 32 10 11 7 8 8 17 19 13 33 54 69 77 83 84
43 40 37 39 41 39 43 45 47 45 13 13 23 42 57 45 29 83 56 37 13 28 16 18 23 10 13 28 20 26 15 16 15 4 14 6 17 19 9 19 19 51 63 83 81
46 43 39 35 31 29 34 28 33 35 19 19 21 22 42 51 12 26 76 58 31 17 15 22 12 21 33 15 27 20 18 24 19 9 6 19 8 13 9 18 28 22 59 80 79
43 44 41 41 45 53 43 36 43 18 19 10 18 21 22 43 7 11 34 33 26 11 9 18 5 14 15 13 30 9 6 6 6 8 7 22 20 28 21 18 15 15 53 72 79
43 41 42 42 48 36 32 26 10 14 3 9 11 18 33 29 32 13 28 39 24 18 26 23 26 5 8 9 5 13 14 5 2 4 20 8 18 37 10 10 15 20 51 57 65
45 42 43 48 43 38 20 9 22 5 14 6 7 22 34 21 35 16 25 36 41 3 7 23 21 34 21 25 14 36 20 9 15 10 7 8 16 13 20 27 52 61 64 58 46
50 46 52 47 46 39 23 19 10 8 14 20 32 22 25 22 12 43 30 32 35 40 23 13 15 5 14 17 25 11 26 26 5 4 3 11 13 16 19 20 19 37 44 57 65
54 53 67 48 47 48 12 24 10 9 5 12 13 8 22 25 22 40 34 30 18 50 5 11 5 6 8 10 12 20 17 11 9 10 11 10 8 15 4 19 22 18 23 39 39
57 31 52 40 42 30 11 16 13 43 38 14 13 20 27 28 38 32 17 19 41 28 43 11 10 2 10 18 41 11 13 12 10 9 11 9 14 15 24 12 13 18 29 33 33
59 15 36 41 15 7 7 15 18 8 27 23 16 18 27 29 36 26 33 27 44 27 40 29 7 9 17 7 5 26 21 25 16 30 13 2 17 9 14 12 11 20 28 16 25
32 29 48 56 15 21 6 14 19 15 15 10 15 22 27 20 14 14 31 18 37 36 29 28 10 4 10 7 3 14 26 31 36 4 36 18 25 10 10 10 12 12 14 10 18
20 8 24 47 34 30 21 17 14 21 27 30 24 28 31 36 26 27 30 21 36 37 42 46 10 27 28 14 14 15 15 20 17 22 38 33 36 6 11 13 12 12 10 11 17
22 11 17 19 25 24 21 17 24 13 26 31 11 38 39 29 34 30 33 30 34 64 23 28 15 22 35 11 9 14 37 26 33 46 23 54 46 17 23 25 17 28 18 23 28
32 11 20 10 36 32 33 25 31 21 12 12 20 35 30 39 38 26 29 24 28 19 27 9 10 13 7 16 10 9 18 33 38 46 41 54 50 17 26 45 14 25 30 40 45
49 14 22 21 17 28 28 42 43 17 20 42 24 18 23 42 48 54 61 41 29 22 11 20 11 8 11 6 11 12 43 14 22 32 38 42 60 12 16 20 23 37 42 54 59
Wind_Direction_500mb
287 285 292 303 310 316 322 323 325 326 332 335 333 330 323 313 304 295 290 283 264 255 270 274 248 239 225 211 200 175 96 227 225 172 240 270 260 264 235 191 191 198 221 229 199
292 288 276 282 293 299 306 310 315 320 324 327 330 332 330 318 312 304 283 262 254 260 261 261 243 233 203 197 188 166 172 223 206 201 221 281 282 308 242 218 226 222 219 227 197
285 287 285 274 276 283 287 293 301 310 315 317 322 329 334 327 319 311 330 186 223 249 260 248 232 219 218 189 199 186 228 181 229 229 226 251 306 283 222 249 238 231 218 213 199
278 278 282 287 279 274 277 281 289 296 304 308 312 320 329 327 294 205 200 200 208 254 280 248 214 200 205 201 209 208 243 202 242 246 257 249 283 268 233 250 274 253 238 218 206
276 278 286 286 279 279 276 278 281 286 293 297 302 310 322 315 274 264 246 246 252 262 272 252 208 187 195 209 217 224 246 222 244 249 250 258 263 255 258 270 262 254 227 225 221
283 282 276 280 286 280 285 281 279 283 280 289 294 298 308 296 289 283 259 251 250 252 260 247 252 235 252 234 179 226 251 257 260 260 255 236 261 243 259 273 261 243 237 227 230
282 283 278 279 279 280 276 284 283 275 278 278 283 286 281 270 284 278 260 246 238 241 245 244 246 239 257 286 265 274 297 297 225 255 239 230 260 227 258 260 263 246 237 232 231
272 277 276 276 273 279 279 279 281 275 270 275 275 272 266 293 286 270 258 255 244 233 257 257 247 251 230 291 325 280 130 271 231 189 237 179 254 243 249 252 257 259 247 239 232
278 269 275 273 277 282 276 277 277 278 267 269 261 255 277 275 282 307 284 250 245 239 246 243 236 228 214 149 347 345 242 210 290 207 182 194 266 259 242 230 248 254 250 242 238
275 274 272 272 271 276 279 281 269 273 264 258 254 254 249 259 276 271 299 243 226 208 206 197 213 209 65 120 218 211 220 237 205 240 222 229 264 272 266 230 242 251 254 247 242
274 278 279 278 273 268 268 268 271 259 229 212 216 218 264 213 202 245 253 195 176 189 181 198 190 210 197 204 227 190 220 219 238 259 218 239 250 260 247 235 256 252 251 249 248
279 273 278 276 270 265 251 245 228 259 282 241 243 246 241 243 272 213 259 195 173 193 145 38 238 210 204 231 235 234 230 249 275 258 190 273 261 260 234 230 239 245 249 252 253
281 285 284 278 277 265 258 256 255 258 267 250 241 240 232 229 246 254 239 211 172 187 191 198 237 204 182 196 220 232 234 213 225 326 264 311 275 256 246 237 247 246 248 252 251
270 273 269 270 273 279 278 274 261 256 250 241 213 242 222 215 248 239 229 203 209 215 167 229 235 201 205 233 190 243 189 221 226 209 251 127 279 252 247 250 228 243 235 244 246
271 270 261 252 251 255 261 280 244 240 241 200 203 211 196 184 167 213 212 198 208 183 147 227 193 204 217 209 186 241 180 198 209 206 358 247 280 264 211 243 246 239 236 243 244
275 268 262 257 252 257 263 275 285 231 237 248 146 171 153 201 220 115 174 201 216 167 255 236 221 178 208 177 190 173 104 89 92 120 247 234 199 255 236 225 251 245 248 247 242
275 268 259 254 256 262 258 257 237 237 228 221 204 175 188 184 206 168 178 190 179 175 225 226 234 233 183 182 134 164 158 183 177 185 237 184 187 244 252 252 230 244 255 254 249
271 267 262 253 249 254 243 220 243 323 253 350 283 201 199 171 209 189 168 199 214 186 139 198 253 191 193 202 173 194 189 178 193 202 235 118 225 249 230 251 248 247 253 259 260
270 262 258 249 241 236 201 222 230 225 289 311 330 225 203 196 196 206 199 205 204 192 189 171 250 219 212 176 164 206 208 218 76 20 122 217 280 293 250 266 259 249 250 256 257
255 255 256 249 239 228 196 232 230 184 257 295 273 279 315 197 195 195 197 201 215 200 157 215 270 226 192 136 237 180 156 182 210 180 224 252 243 232 303 258 268 275 242 258 257
235 235 259 238 230 225 210 214 211 228 238 230 239 281 281 299 286 196 212 205 194 190 196 177 174 297 135 202 192 183 185 211 178 166 212 258 254 215 224 246 279 278 281 259 247
232 204 217 189 178 199 194 185 241 273 211 225 235 237 259 269 268 284 225 204 191 160 194 200 168 180 204 245 297 220 198 198 206 223 235 198 251 205 227 249 263 275 283 272 235
230 193 181 185 193 211 265 228 220 225 211 224 223 216 239 261 253 280 270 266 181 172 177 175 219 57 347 342 222 203 208 208 219 59 228 223 260 212 253 254 268 281 290 235 222
221 184 172 188 222 197 195 224 229 219 240 228 247 256 258 267 252 272 276 307 326 205 184 170 184 205 216 209 142 213 198 216 221 233 241 235 250 314 282 289 295 270 261 253 235
222 197 182 173 205 193 165 175 215 236 216 194 262 234 248 253 255 246 267 267 273 255 181 173 204 208 231 235 189 203 216 206 209 227 217 244 244 216 254 278 239 262 260 250 244
211 187 166 205 192 185 186 210 205 215 162 227 213 247 245 253 247 240 243 260 254 209 192 207 232 166 272 214 188 230 220 218 215 230 237 248 255 219 232 253 259 228 237 238 244
207 210 168 185 153 171 202 208 216 182 251 241 242 250 270 265 249 240 244 254 249 272 266 186 148 99 257 219 164 285 235 206 229 228 220 234 242 157 226 238 252 255 230 236 243
Wind_Speed_850mb
32 29 27 30 31 30 29 31 32 32 32 32 32 34 36 38 34 35 27 25 23 27 27 21 22 18 19 15 16 11 3 8 10 13 10 11 4 4 6 11 19 24 17 12 21
32 32 35 30 30 31 29 30 31 31 33 34 34 34 36 38 42 40 29 29 27 31 32 24 19 21 11 12 16 12 8 16 13 11 9 5 4 14 5 7 15 23 28 22 26
33 32 32 39 33 31 29 32 34 34 32 34 36 35 36 37 37 5 2 5 9 12 19 22 17 18 12 12 16 13 18 12 12 28 14 7 20 11 8 9 29 37 41 33 40
39 40 40 37 37 40 38 37 36 35 34 34 36 38 36 31 10 4 8 8 8 7 13 13 19 11 10 12 18 7 23 22 17 38 20 10 13 9 23 40 29 45 31 40 50
45 45 38 38 41 39 42 42 39 35 36 35 36 38 39 23 27 20 21 20 14 13 13 13 20 13 10 10 12 7 12 15 39 37 37 33 27 26 31 46 42 28 31 43 53
45 48 46 42 36 35 38 42 41 37 37 36 37 37 30 16 14 15 28 30 28 19 14 13 9 11 11 10 13 9 11 26 31 39 19 9 21 13 34 40 37 40 41 43 52
45 40 43 44 43 39 41 41 41 39 36 36 37 38 37 53 29 33 27 27 25 20 19 15 15 15 2 8 11 16 12 12 8 14 12 23 23 22 52 44 34 38 45 47 53
51 45 42 42 46 45 45 44 46 43 39 35 34 33 30 55 52 53 41 51 41 30 22 17 14 15 13 12 11 5 4 7 7 15 17 25 37 23 54 51 60 55 51 55 59
56 59 52 45 48 45 41 42 42 40 43 34 28 25 33 39 23 10 17 40 41 33 27 18 7 13 7 6 9 8 7 12 13 23 10 18 15 11 45 41 52 60 64 64 62
56 59 65 56 60 51 42 40 42 45 38 36 30 14 40 36 18 10 9 11 18 18 12 17 15 5 3 7 16 18 13 9 11 3 10 11 24 17 13 32 58 63 58 65 69
52 51 48 59 58 57 45 42 35 18 36 32 22 38 7 10 10 5 3 6 15 14 11 10 7 19 24 34 5 7 7 9 4 9 8 15 23 31 30 33 38 49 55 66 73
51 52 46 49 47 45 46 49 33 7 20 46 71 55 56 29 12 20 13 9 14 11 7 2 30 17 14 12 13 12 13 15 9 11 11 15 23 26 18 19 50 62 68 66 70
51 52 47 46 49 49 43 58 54 47 17 33 63 79 67 71 69 75 31 14 10 13 17 17 8 19 22 11 22 22 32 10 11 7 8 8 17 19 13 33 54 69 77 83 84
43 40 37 39 41 39 43 45 47 45 13 13 23 42 57 45 29 83 56 37 13 28 16 18 23 10 13 28 20 26 15 16 15 4 14 6 17 19 9 19 19 51 63 83 81
46 43 39 35 31 29 34 28 33 35 19 19 21 22 42 51 12 26 76 58 31 17 15 22 12 21 33 15 27 20 18 24 19 9 6 19 8 13 9 18 28 22 59 80 79
43 44 41 41 45 53 43 36 43 18 19 10 18 21 22 43 7 11 34 33 26 11 9 18 5 14 15 13 30 9 6 6 6 8 7 22 20 28 21 18 15 15 53 72 79
43 41 42 42 48 36 32 26 10 14 3 9 11 18 33 29 32 13 28 39 24 18 26 23 26 5 8 9 5 13 14 5 2 4 20 8 18 37 10 10 15 20 51 57 65
45 42 43 48 43 38 20 9 22 5 14 6 7 22 34 21 35 16 25 36 41 3 7 23 21 34 21 25 14 36 20 9 15 10 7 8 16 13 20 27 52 61 64 58 46
50 46 52 47 46 39 23 19 10 8 14 20 32 22 25 22 12 43 30 32 35 40 23 13 15 5 14 17 25 11 26 26 5 4 3 11 13 16 19 20 19 37 44 57 65
54 53 67 48 47 48 12 24 10 9 5 12 13 8 22 25 22 40 34 30 18 50 5 11 5 6 8 10 12 20 17 11 9 10 11 10 8 15 4 19 22 18 23 39 39
57 31 52 40 42 30 11 16 13 43 38 14 13 20 27 28 38 32 17 19 41 28 43 11 10 2 10 18 41 11 13 12 10 9 11 9 14 15 24 12 13 18 29 33 33
59 15 36 41 15 7 7 15 18 8 27 23 16 18 27 29 36 26 33 27 44 27 40 29 7 9 17 7 5 26 21 25 16 30 13 2 17 9 14 12 11 20 28 16 25
32 29 48 56 15 21 6 14 19 15 15 10 15 22 27 20 14 14 31 18 37 36 29 28 10 4 10 7 3 14 26 31 36 4 36 18 25 10 10 10 12 12 14 10 18
20 8 24 47 34 30 21 17 14 21 27 30 24 28 31 36 26 27 30 21 36 37 42 46 10 27 28 14 14 15 15 20 17 22 38 33 36 6 11 13 12 12 10 11 17
22 11 17 19 25 24 21 17 24 13 26 31 11 38 39 29 34 30 33 30 34 64 23 28 15 22 35 11 9 14 37 26 33 46 23 54 46 17 23 25 17 28 18 23 28
32 11 20 10 36 32 33 25 31 21 12 12 20 35 30 39 38 26 29 24 28 19 27 9 10 13 7 16 10 9 18 33 38 46 41 54 50 17 26 45 14 25 30 40 45
49 14 22 21 17 28 28 42 43 17 20 42 24 18 23 42 48 54 61 41 29 22 11 20 11 8 11 6 11 12 43 14 22 32 38 42 60 12 16 20 23 37 42 54 59
Wind_Direction_850mb
287 285 292 303 310 316 322 323 325 326 332 335 333 330 323 313 304 295 290 283 264 255 270 274 248 239 225 211 200 175 96 227 225 172 240 270 260 264 235 191 191 198 221 229 199
292 288 276 282 293 299 306 310 315 320 324 327 330 332 330 318 312 304 283 262 254 260 261 261 243 233 203 197 188 166 172 223 206 201 221 281 282 308 242 218 226 222 219 227 197
285 287 285 274 276 283 287 293 301 310 315 317 322 329 334 327 319 311 330 186 223 249 260 248 232 219 218 189 199 186 228 181 229 229 226 251 306 283 222 249 238 231 218 213 199
278 278 282 287 279 274 277 281 289 296 304 308 312 320 329 327 294 205 200 200 208 254 280 248 214 200 205 201 209 208 243 202 242 246 257 249 283 268 233 250 274 253 238 218 206
276 278 286 286 279 279 276 278 281 286 293 297 302 310 322 315 274 264 246 246 252 262 272 252 208 187 195 209 217 224 246 222 244 249 250 258 263 255 258 270 262 254 227 225 221
283 282 276 280 286 280 285 281 279 283 280 289 294 298 308 296 289 283 259 251 250 252 260 247 252 235 252 234 179 226 251 257 260 260 255 236 261 243 259 273 261 243 237 227 230
282 283 278 279 279 280 276 284 283 275 278 278 283 286 281 270 284 278 260 246 238 241 245 244 246 239 257 286 265 274 297 297 225 255 239 230 260 227 258 260 263 246 237 232 231
272 277 276 276 273 279 279 279 281 275 270 275 275 272 266 293 286 270 258 255 244 233 257 257 247 251 230 291 325 280 130 271 231 189 237 179 254 243 249 252 257 259 247 239 232
278 269 275 273 277 282 276 277 277 278 267 269 261 255 277 275 282 307 284 250 245 239 246 243 236 228 214 149 347 345 242 210 290 207 182 194 266 259 242 230 248 254 250 242 238
275 274 272 272 271 276 279 281 269 273 264 258 254 254 249 259 276 271 299 243 226 208 206 197 213 209 65 120 218 211 220 237 205 240 222 229 264 272 266 230 242 251 254 247 242
274 278 279 278 273 268 268 268 271 259 229 212 216 218 264 213 202 245 253 195 176 189 181 198 190 210 197 204 227 190 220 219 238 259 218 239 250 260 247 235 256 252 251 249 248
279 273 278 276 270 265 251 245 228 259 282 241 243 246 241 243 272 213 259 195 173 193 145 38 238 210 204 231 235 234 230 249 275 258 190 273 261 260 234 230 239 245 249 252 253
281 285 284 278 277 265 258 256 255 258 267 250 241 240 232 229 246 254 239 211 172 187 191 198 237 204 182 196 220 232 234 213 225 326 264 311 275 256 246 237 247 246 248 252 251
270 273 269 270 273 279 278 274 261 256 250 241 213 242 222 215 248 239 229 203 209 215 167 229 235 201 205 233 190 243 189 221 226 209 251 127 279 252 247 250 228 243 235 244 246
271 270 261 252 251 255 261 280 244 240 241 200 203 211 196 184 167 213 212 198 208 183 147 227 193 204 217 209 186 241 180 198 209 206 358 247 280 264 211 243 246 239 236 243 244
275 268 262 257 252 257 263 275 285 231 237 248 146 171 153 201 220 115 174 201 216 167 255 236 221 178 208 177 190 173 104 89 92 120 247 234 199 255 236 225 251 245 248 247 242
275 268 259 254 256 262 258 257 237 237 228 221 204 175 188 184 206 168 178 190 179 175 225 226 234 233 183 182 134 164 158 183 177 185 237 184 187 244 252 252 230 244 255 254 249
271 267 262 253 249 254 243 220 243 323 253 350 283 201 199 171 209 189 168 199 214 186 139 198 253 191 193 202 173 194 189 178 193 202 235 118 225 249 230 251 248 247 253 259 260
270 262 258 249 241 236 201 222 230 225 289 311 330 225 203 196 196 206 199 205 204 192 189 171 250 219 212 176 164 206 208 218 76 20 122 217 280 293 250 266 259 249 250 256 257
255 255 256 249 239 228 196 232 230 184 257 295 273 279 315 197 195 195 197 201 215 200 157 215 270 226 192 136 237 180 156 182 210 180 224 252 243 232 303 258 268 275 242 258 257
235 235 259 238 230 225 210 214 211 228 238 230 239 281 281 299 286 196 212 205 194 190 196 177 174 297 135 202 192 183 185 211 178 166 212 258 254 215 224 246 279 278 281 259 247
232 204 217 189 178 199 194 185 241 273 211 225 235 237 259 269 268 284 225 204 191 160 194 200 168 180 204 245 297 220 198 198 206 223 235 198 251 205 227 249 263 275 283 272 235
230 193 181 185 193 211 265 228 220 225 211 224 223 216 239 261 253 280 270 266 181 172 177 175 219 57 347 342 222 203 208 208 219 59 228 223 260 212 253 254 268 281 290 235 222
221 184 172 188 222 197 195 224 229 219 240 228 247 256 258 267 252 272 276 307 326 205 184 170 184 205 216 209 142 213 198 216 221 233 241 235 250 314 282 289 295 270 261 253 235
222 197 182 173 205 193 165 175 215 236 216 194 262 234 248 253 255 246 267 267 273 255 181 173 204 208 231 235 189 203 216 206 209 227 217 244 244 216 254 278 239 262 260 250 244
211 187 166 205 192 185 186 210 205 215 162 227 213 247 245 253 247 240 243 260 254 209 192 207 232 166 272 214 188 230 220 218 215 230 237 248 255 219 232 253 259 228 237 238 244
207 210 168 185 153 171 202 208 216 182 251 241 242 250 270 265 249 240 244 254 249 272 266 186 148 99 257 219 164 285 235 206 229 228 220 234 242 157 226 238 252 255 230 236 243